Location: Wavehorne
(51.0500°N, 0.8333°E)
Time: 20:18:17
(UTC+00:00)

Cosmos 1328 Rocket - Pass Details

Date: 20 June 2021
Orbit: 602 x 626 km, 82.5° (Epoch: 23 July)

Event Time Altitude Azimuth Distance (km) Brightness Sun altitude
Rises 02:23:13 0° 351° (N) 2,879 7.8 -9.0°
Reaches altitude 10° 02:25:28 10° 355° (N) 1,973 7.0 -8.8°
Maximum altitude 02:29:48 64° 77° (ENE) 680 4.0 -8.4°
Drops below altitude 10° 02:34:08 10° 160° (SSE) 1,972 5.8 -8.0°
Sets 02:36:22 0° 163° (SSE) 2,876 6.6 -7.8°
